Location: Lafig�re
(44.4503°N, 4.0357°E)
Time: 07:46:23
(UTC+00:00)

Cosmos 1092 Rocket - Pass Details

Date: 26 January 2021
Orbit: 954 x 994 km, 83.0° (Epoch: 08 March)

Event Time Altitude Azimuth Distance (km) Brightness Sun altitude
Rises 05:50:34 0° 346° (NNW) 3,645 6.7 -14.0°
Reaches altitude 10° 05:53:10 10° 340° (NNW) 2,697 6.0 -13.5°
Maximum altitude 05:58:58 45° 270° (W) 1,287 4.2 -12.5°
Drops below altitude 10° 06:04:47 10° 200° (SSW) 2,698 6.3 -11.5°
Sets 06:07:22 0° 194° (SSW) 3,647 7.0 -11.0°
